Weather History for KGCK - September, 2013

Change the Weather History Date:

Monday, September 9, 2013

  Actual Average Record
Temperature  
Mean Temperature 80 °F 71 °F  
Max Temperature 94 °F 85 °F 101 °F (1983)
Min Temperature 65 °F 57 °F 40 °F (1962)
Degree Days  
Heating Degree Days 0 1  
Month to date heating degree days 0 6  
Since 1 July heating degree days 0 10  
Cooling Degree Days 15 7  
Month to date cooling degree days 125 73  
Year to date cooling degree days 1467 1189  
Growing Degree Days 28 (Base 50)    
Moisture  
Dew Point 53 °F    
Average Humidity 46    
Maximum Humidity 68    
Minimum Humidity 24    
Precipitation  
Precipitation 0.00 in 0.06 in 1.61 in (1969)
Month to date precipitation 0.03 0.49  
Year to date precipitation 10.20 16.14  
Sea Level Pressure  
Sea Level Pressure 29.79 in    
Wind  
Wind Speed 14 mph (South)    
Max Wind Speed 28 mph    
Max Gust Speed 45 mph    
Visibility 10 miles    
Events      
T = Trace of Precipitation, MM = Missing Value Source: NWS Daily Summary

Daily Weather History Graph

Daily Weather History Graph

Search for Another Location

Airport or City:

Trip Planner

Search our weather history database for the weather conditions in past years. The results will help you decide how hot, cold, wet, or windy it might be!

Date:

Astronomy

Sep. 09, 2013 Rise Set
Actual Time 7:19 AM CDT 7:59 PM CDT
Civil Twilight 6:53 AM CDT 8:26 PM CDT
Nautical Twilight 6:21 AM CDT 8:57 PM CDT
Astronomical Twilight 5:49 AM CDT 9:29 PM CDT
Moon 11:38 AM CDT (9/9) 10:23 PM CDT (9/9)
Length of Visible Light 13h 32m
Length of Day
12h 39m
Waxing Crescent, 19% of the Moon is Illuminated
Sep 9
Waxing Crescent
Sep 12
First Quarter
Sep 19
Full
Sep 26
Last Quarter
Oct 4
New

Hourly Weather History & Observations

Time (CDT) Temp. Heat Index Dew Point Humidity Pressure Visibility Wind Dir Wind Speed Gust Speed Precip Events Conditions
12:54 AM 75.0 °F - 53.1 °F 46% 29.81 in 10.0 mi South 9.2 mph - N/A   Clear
1:54 AM 71.1 °F - 53.1 °F 53% 29.82 in 10.0 mi South 6.9 mph - N/A   Clear
2:54 AM 70.0 °F - 52.0 °F 53% 29.82 in 10.0 mi South 5.8 mph - N/A   Clear
3:54 AM 70.0 °F - 52.0 °F 53% 29.81 in 10.0 mi South 8.1 mph - N/A   Clear
4:54 AM 68.0 °F - 53.1 °F 59% 29.81 in 10.0 mi South 5.8 mph - N/A   Clear
5:54 AM 66.9 °F - 53.1 °F 61% 29.81 in 10.0 mi SSE 5.8 mph - N/A   Clear
6:54 AM 64.9 °F - 54.0 °F 68% 29.82 in 10.0 mi SSE 6.9 mph - N/A   Clear
7:54 AM 66.0 °F - 55.0 °F 68% 29.83 in 10.0 mi South 8.1 mph - N/A   Clear
8:54 AM 73.0 °F - 55.9 °F 55% 29.83 in 10.0 mi SSW 11.5 mph - N/A   Clear
9:54 AM 80.1 °F 80.4 °F 57.0 °F 45% 29.83 in 10.0 mi SSW 15.0 mph - N/A   Clear
10:54 AM 84.9 °F 83.9 °F 57.0 °F 38% 29.82 in 10.0 mi SSW 19.6 mph 25.3 mph N/A   Clear
11:54 AM 88.0 °F 86.5 °F 55.9 °F 34% 29.81 in 10.0 mi SSW 17.3 mph 28.8 mph N/A   Clear
12:54 PM 91.0 °F 88.9 °F 55.0 °F 29% 29.80 in 10.0 mi South 21.9 mph 34.5 mph N/A   Partly Cloudy
1:54 PM 93.0 °F 90.8 °F 54.0 °F 27% 29.78 in 10.0 mi South 24.2 mph 32.2 mph N/A   Clear
2:54 PM 93.0 °F - 52.0 °F 25% 29.77 in 10.0 mi South 23.0 mph 33.4 mph N/A   Partly Cloudy
3:54 PM 91.9 °F - 52.0 °F 26% 29.75 in 10.0 mi South 20.7 mph 44.9 mph N/A   Partly Cloudy
4:54 PM 93.0 °F - 52.0 °F 25% 29.74 in 10.0 mi South 21.9 mph 31.1 mph N/A   Clear
5:54 PM 91.9 °F - 50.0 °F 24% 29.73 in 10.0 mi South 18.4 mph 32.2 mph N/A   Clear
6:54 PM 90.0 °F - 48.9 °F 24% 29.74 in 10.0 mi South 18.4 mph 26.5 mph N/A   Clear
7:54 PM 86.0 °F - 50.0 °F 29% 29.75 in 10.0 mi South 12.7 mph - N/A   Clear
8:54 PM 81.0 °F 80.4 °F 53.1 °F 38% 29.78 in 10.0 mi SSE 12.7 mph 21.9 mph N/A   Clear
9:54 PM 80.1 °F 80.1 °F 55.0 °F 42% 29.79 in 10.0 mi South 15.0 mph - N/A   Clear
10:54 PM 78.1 °F - 55.0 °F 45% 29.81 in 10.0 mi South 15.0 mph - N/A   Clear
11:54 PM 77.0 °F - 55.0 °F 47% 29.82 in 10.0 mi South 13.8 mph - N/A   Clear